Time,TemperatureF,DewpointF,PressureIn,WindDirection,WindDirectionDegrees,WindSpeedMPH,WindSpeedGustMPH,Humidity,HourlyPrecipIn,Conditions,Clouds,dailyrainin,SoftwareType,DateUTC
2013-02-02 00:04:00,10.3,6.0,30.28,SSW,192,2.0,6.0,81,0.00,,,0.00,weatherlink.com 1.10,2013-02-02 05:04:00,
2013-02-02 00:19:00,10.7,6.0,30.28,SSW,203,2.0,8.0,81,0.00,,,0.00,weatherlink.com 1.10,2013-02-02 05:19:00,
2013-02-02 00:34:00,10.9,6.0,30.27,SSW,195,2.0,6.0,81,0.00,,,0.00,weatherlink.com 1.10,2013-02-02 05:34:00,
2013-02-02 00:49:00,11.1,6.0,30.27,SW,225,2.0,5.0,81,0.00,,,0.00,weatherlink.com 1.10,2013-02-02 05:49:00,
2013-02-02 01:04:00,11.1,6.0,30.27,SW,219,3.0,6.0,81,0.00,,,0.00,weatherlink.com 1.10,2013-02-02 06:04:00,
2013-02-02 01:19:00,11.1,6.0,30.27,WSW,254,4.0,6.0,81,0.00,,,0.00,weatherlink.com 1.10,2013-02-02 06:19:00,
2013-02-02 01:34:00,11.0,6.0,30.26,SW,228,2.0,4.0,81,0.00,,,0.00,weatherlink.com 1.10,2013-02-02 06:34:00,
2013-02-02 01:49:00,11.0,7.0,30.25,South,180,1.0,6.0,82,0.00,,,0.00,weatherlink.com 1.10,2013-02-02 06:49:00,
2013-02-02 02:04:00,11.2,7.0,30.25,SW,220,2.0,7.0,82,0.00,,,0.00,weatherlink.com 1.10,2013-02-02 07:04:00,
2013-02-02 02:20:00,11.3,7.0,30.25,SSW,196,1.0,5.0,83,0.00,,,0.00,weatherlink.com 1.10,2013-02-02 07:20:00,
2013-02-02 02:35:00,11.7,8.0,30.24,WSW,240,5.0,6.0,83,0.00,,,0.00,weatherlink.com 1.10,2013-02-02 07:35:00,
2013-02-02 02:50:00,12.0,8.0,30.24,South,182,2.0,6.0,82,0.00,,,0.00,weatherlink.com 1.10,2013-02-02 07:50:00,
2013-02-02 03:20:00,12.4,8.0,30.23,WSW,244,3.0,7.0,82,0.00,,,0.00,weatherlink.com 1.10,2013-02-02 08:20:00,
2013-02-02 03:35:00,12.7,8.0,30.22,SSW,200,2.0,5.0,82,0.00,,,0.00,weatherlink.com 1.10,2013-02-02 08:35:00,
2013-02-02 03:50:00,13.2,9.0,30.22,SSW,201,3.0,5.0,82,0.00,,,0.00,weatherlink.com 1.10,2013-02-02 08:50:00,
2013-02-02 04:20:00,13.8,10.0,30.20,SSW,199,4.0,7.0,83,0.00,,,0.00,weatherlink.com 1.10,2013-02-02 09:20:00,
2013-02-02 04:35:00,14.1,10.0,30.20,WSW,237,5.0,7.0,82,0.00,,,0.00,weatherlink.com 1.10,2013-02-02 09:35:00,
2013-02-02 04:50:00,14.3,10.0,30.19,SW,216,4.0,6.0,83,0.00,,,0.00,weatherlink.com 1.10,2013-02-02 09:50:00,
2013-02-02 05:05:00,14.3,10.0,30.18,South,189,4.0,5.0,84,0.00,,,0.00,weatherlink.com 1.10,2013-02-02 10:05:00,
2013-02-02 05:20:00,14.4,10.0,30.17,South,181,2.0,5.0,84,0.00,,,0.00,weatherlink.com 1.10,2013-02-02 10:20:00,
2013-02-02 05:35:00,14.5,11.0,30.17,SW,225,3.0,5.0,85,0.00,,,0.00,weatherlink.com 1.10,2013-02-02 10:35:00,
2013-02-02 05:50:00,14.6,11.0,30.16,SSW,205,0.0,4.0,86,0.00,,,0.00,weatherlink.com 1.10,2013-02-02 10:50:00,
2013-02-02 06:05:00,14.7,11.0,30.16,SW,223,2.0,6.0,86,0.00,,,0.00,weatherlink.com 1.10,2013-02-02 11:05:00,
2013-02-02 06:20:00,14.8,12.0,30.15,SSW,202,2.0,4.0,87,0.00,,,0.00,weatherlink.com 1.10,2013-02-02 11:20:00,
2013-02-02 06:35:00,14.8,12.0,30.15,SW,215,1.0,4.0,87,0.00,,,0.00,weatherlink.com 1.10,2013-02-02 11:35:00,
2013-02-02 06:50:00,14.8,12.0,30.14,South,174,2.0,3.0,88,0.00,,,0.00,weatherlink.com 1.10,2013-02-02 11:50:00,
2013-02-02 07:05:00,14.8,12.0,30.14,SSW,208,1.0,5.0,88,0.00,,,0.00,weatherlink.com 1.10,2013-02-02 12:05:00,
2013-02-02 07:20:00,14.9,12.0,30.14,SW,225,1.0,3.0,89,0.00,,,0.00,weatherlink.com 1.10,2013-02-02 12:20:00,
2013-02-02 07:35:00,15.0,12.0,30.13,SW,230,2.0,4.0,89,0.00,,,0.00,weatherlink.com 1.10,2013-02-02 12:35:00,
2013-02-02 07:50:00,15.1,13.0,30.13,SSW,202,1.0,4.0,89,0.00,,,0.00,weatherlink.com 1.10,2013-02-02 12:50:00,
2013-02-02 08:05:00,15.2,13.0,30.12,South,181,1.0,5.0,90,0.00,,,0.00,weatherlink.com 1.10,2013-02-02 13:05:00,
2013-02-02 08:20:00,15.4,13.0,30.12,SE,134,3.0,4.0,90,0.00,,,0.00,weatherlink.com 1.10,2013-02-02 13:20:00,
2013-02-02 08:35:00,15.7,13.0,30.12,SSE,164,1.0,5.0,90,0.00,,,0.00,weatherlink.com 1.10,2013-02-02 13:35:00,
2013-02-02 08:50:00,16.0,13.0,30.11,SSW,192,1.0,5.0,89,0.00,,,0.00,weatherlink.com 1.10,2013-02-02 13:50:00,
2013-02-02 09:05:00,16.4,14.0,30.11,SW,226,3.0,5.0,88,0.00,,,0.00,weatherlink.com 1.10,2013-02-02 14:05:00,
2013-02-02 09:20:00,16.9,14.0,30.10,SW,223,1.0,6.0,88,0.00,,,0.00,weatherlink.com 1.10,2013-02-02 14:20:00,
2013-02-02 09:36:00,17.5,14.0,30.10,SW,225,3.0,6.0,87,0.00,,,0.00,weatherlink.com 1.10,2013-02-02 14:36:00,
2013-02-02 09:51:00,18.5,15.0,30.09,SSW,211,3.0,7.0,86,0.00,,,0.00,weatherlink.com 1.10,2013-02-02 14:51:00,
2013-02-02 10:06:00,19.1,15.0,30.09,SSW,211,1.0,7.0,84,0.00,,,0.00,weatherlink.com 1.10,2013-02-02 15:06:00,
2013-02-02 10:21:00,19.3,15.0,30.08,SSE,167,5.0,7.0,84,0.00,,,0.00,weatherlink.com 1.10,2013-02-02 15:21:00,
2013-02-02 10:36:00,19.6,16.0,30.08,SW,221,3.0,7.0,84,0.00,,,0.00,weatherlink.com 1.10,2013-02-02 15:36:00,
2013-02-02 10:51:00,19.8,15.0,30.08,SSW,202,2.0,5.0,83,0.00,,,0.00,weatherlink.com 1.10,2013-02-02 15:51:00,
2013-02-02 11:06:00,20.2,16.0,30.07,SW,219,2.0,5.0,83,0.00,,,0.00,weatherlink.com 1.10,2013-02-02 16:06:00,
2013-02-02 11:21:00,20.4,16.0,30.07,SW,236,2.0,5.0,83,0.00,,,0.00,weatherlink.com 1.10,2013-02-02 16:21:00,
2013-02-02 11:36:00,20.9,17.0,30.07,ENE,58,1.0,5.0,83,0.00,,,0.00,weatherlink.com 1.10,2013-02-02 16:36:00,
2013-02-02 11:51:00,21.5,17.0,30.06,West,261,1.0,4.0,82,0.00,,,0.00,weatherlink.com 1.10,2013-02-02 16:51:00,
2013-02-02 12:06:00,22.0,17.0,30.05,SSW,202,2.0,5.0,81,0.00,,,0.00,weatherlink.com 1.10,2013-02-02 17:06:00,
2013-02-02 12:21:00,22.7,18.0,30.05,SSW,202,2.0,3.0,82,0.00,,,0.00,weatherlink.com 1.10,2013-02-02 17:21:00,
2013-02-02 12:36:00,22.8,18.0,30.04,WSW,244,3.0,4.0,81,0.00,,,0.00,weatherlink.com 1.10,2013-02-02 17:36:00,
2013-02-02 12:51:00,23.0,18.0,30.03,SSW,201,2.0,4.0,81,0.00,,,0.00,weatherlink.com 1.10,2013-02-02 17:51:00,
2013-02-02 13:06:00,22.9,18.0,30.03,SW,227,0.0,3.0,82,0.00,,,0.00,weatherlink.com 1.10,2013-02-02 18:06:00,
2013-02-02 13:21:00,23.0,18.0,30.02,NNW,328,1.0,6.0,82,0.00,,,0.00,weatherlink.com 1.10,2013-02-02 18:21:00,
2013-02-02 13:36:00,23.0,19.0,30.02,West,273,0.0,3.0,84,0.00,,,0.00,weatherlink.com 1.10,2013-02-02 18:36:00,
2013-02-02 13:51:00,23.1,19.0,30.02,ESE,111,1.0,3.0,84,0.00,,,0.00,weatherlink.com 1.10,2013-02-02 18:51:00,
2013-02-02 14:06:00,23.3,20.0,30.02,SSW,200,0.0,4.0,85,0.00,,,0.00,weatherlink.com 1.10,2013-02-02 19:06:00,
2013-02-02 14:21:00,23.5,20.0,30.02,West,271,0.0,2.0,85,0.00,,,0.00,weatherlink.com 1.10,2013-02-02 19:21:00,
2013-02-02 14:36:00,23.5,20.0,30.02,WSW,253,1.0,2.0,85,0.00,,,0.00,weatherlink.com 1.10,2013-02-02 19:36:00,
2013-02-02 14:51:00,23.1,20.0,30.02,North,360,3.0,6.0,86,0.00,,,0.00,weatherlink.com 1.10,2013-02-02 19:51:00,
2013-02-02 15:06:00,22.4,19.0,30.02,NNW,327,2.0,6.0,87,0.00,,,0.00,weatherlink.com 1.10,2013-02-02 20:06:00,
2013-02-02 15:21:00,21.6,18.0,30.03,NNW,342,4.0,8.0,86,0.00,,,0.00,weatherlink.com 1.10,2013-02-02 20:21:00,
2013-02-02 15:36:00,21.3,18.0,30.03,NNW,330,2.0,7.0,87,0.00,,,0.00,weatherlink.com 1.10,2013-02-02 20:36:00,
2013-02-02 15:51:00,20.7,17.0,30.03,NNW,344,2.0,8.0,86,0.00,,,0.00,weatherlink.com 1.10,2013-02-02 20:51:00,
2013-02-02 16:06:00,20.0,17.0,30.04,NNW,346,1.0,7.0,86,0.00,,,0.00,weatherlink.com 1.10,2013-02-02 21:06:00,
2013-02-02 16:21:00,19.7,16.0,30.04,NE,41,1.0,6.0,86,0.00,,,0.00,weatherlink.com 1.10,2013-02-02 21:21:00,
2013-02-02 16:36:00,19.4,16.0,30.05,NNW,342,1.0,6.0,86,0.00,,,0.00,weatherlink.com 1.10,2013-02-02 21:36:00,
2013-02-02 16:51:00,19.0,14.0,30.05,North,355,0.0,6.0,82,0.00,,,0.00,weatherlink.com 1.10,2013-02-02 21:51:00,
2013-02-02 17:06:00,18.7,14.0,30.05,North,355,4.0,4.0,82,0.00,,,0.00,weatherlink.com 1.10,2013-02-02 22:06:00,
2013-02-02 17:21:00,18.4,14.0,30.06,NNW,346,1.0,4.0,81,0.00,,,0.00,weatherlink.com 1.10,2013-02-02 22:21:00,
2013-02-02 17:36:00,18.2,13.0,30.06,NNW,338,0.0,5.0,81,0.00,,,0.00,weatherlink.com 1.10,2013-02-02 22:36:00,
2013-02-02 17:51:00,18.0,13.0,30.06,NNW,339,0.0,4.0,81,0.00,,,0.00,weatherlink.com 1.10,2013-02-02 22:51:00,
2013-02-02 18:06:00,17.7,13.0,30.07,NNW,348,0.0,4.0,82,0.00,,,0.00,weatherlink.com 1.10,2013-02-02 23:06:00,
2013-02-02 18:21:00,17.5,13.0,30.07,North,355,1.0,4.0,83,0.00,,,0.00,weatherlink.com 1.10,2013-02-02 23:21:00,
2013-02-02 18:36:00,17.3,13.0,30.08,North,360,1.0,6.0,84,0.00,,,0.00,weatherlink.com 1.10,2013-02-02 23:36:00,
2013-02-02 18:51:00,16.9,13.0,30.08,NNW,329,4.0,10.0,84,0.00,,,0.00,weatherlink.com 1.10,2013-02-02 23:51:00,
2013-02-02 19:06:00,16.4,13.0,30.09,NNW,346,2.0,6.0,85,0.00,,,0.00,weatherlink.com 1.10,2013-02-03 00:06:00,
2013-02-02 19:21:00,16.1,12.0,30.09,North,350,1.0,7.0,85,0.00,,,0.00,weatherlink.com 1.10,2013-02-03 00:21:00,
2013-02-02 19:36:00,15.9,13.0,30.09,NNW,342,2.0,4.0,86,0.00,,,0.00,weatherlink.com 1.10,2013-02-03 00:36:00,
2013-02-02 19:51:00,15.6,12.0,30.10,NNW,338,1.0,4.0,85,0.00,,,0.00,weatherlink.com 1.10,2013-02-03 00:51:00,
2013-02-02 20:06:00,15.3,12.0,30.10,NNW,346,2.0,7.0,85,0.00,,,0.00,weatherlink.com 1.10,2013-02-03 01:06:00,
2013-02-02 20:22:00,14.9,11.0,30.10,NNE,15,1.0,5.0,84,0.00,,,0.00,weatherlink.com 1.10,2013-02-03 01:22:00,
2013-02-02 20:37:00,14.5,10.0,30.09,NNW,333,1.0,6.0,83,0.00,,,0.00,weatherlink.com 1.10,2013-02-03 01:37:00,
2013-02-02 20:52:00,14.1,10.0,30.10,NNW,340,2.0,4.0,82,0.00,,,0.00,weatherlink.com 1.10,2013-02-03 01:52:00,
2013-02-02 21:07:00,13.6,9.0,30.09,NW,325,3.0,5.0,81,0.00,,,0.00,weatherlink.com 1.10,2013-02-03 02:07:00,
2013-02-02 21:22:00,13.2,8.0,30.09,NNW,339,2.0,4.0,81,0.00,,,0.00,weatherlink.com 1.10,2013-02-03 02:22:00,
2013-02-02 21:37:00,12.7,8.0,30.09,NNW,344,0.0,3.0,81,0.00,,,0.00,weatherlink.com 1.10,2013-02-03 02:37:00,
2013-02-02 21:52:00,12.3,8.0,30.09,NNW,344,0.0,0.0,81,0.00,,,0.00,weatherlink.com 1.10,2013-02-03 02:52:00,
2013-02-02 22:07:00,11.5,7.0,30.10,NNW,344,0.0,0.0,81,0.00,,,0.00,weatherlink.com 1.10,2013-02-03 03:07:00,
2013-02-02 22:22:00,10.6,6.0,30.09,NNW,344,0.0,0.0,83,0.00,,,0.00,weatherlink.com 1.10,2013-02-03 03:22:00,
2013-02-02 22:37:00,9.6,5.0,30.10,NNW,344,0.0,0.0,82,0.00,,,0.00,weatherlink.com 1.10,2013-02-03 03:37:00,
2013-02-02 22:52:00,8.6,4.0,30.09,NNW,344,0.0,0.0,82,0.00,,,0.00,weatherlink.com 1.10,2013-02-03 03:52:00,
2013-02-02 23:07:00,7.7,3.0,30.09,NNW,344,0.0,0.0,82,0.00,,,0.00,weatherlink.com 1.10,2013-02-03 04:07:00,
2013-02-02 23:22:00,6.9,3.0,30.09,NNW,344,0.0,0.0,85,0.00,,,0.00,weatherlink.com 1.10,2013-02-03 04:22:00,
2013-02-02 23:37:00,6.5,4.0,30.08,NNW,344,0.0,0.0,87,0.00,,,0.00,weatherlink.com 1.10,2013-02-03 04:37:00,
2013-02-02 23:52:00,6.0,3.0,30.08,NNW,344,0.0,0.0,86,0.00,,,0.00,weatherlink.com 1.10,2013-02-03 04:52:00,